User: anonymous   Login
Location: Bu�n Treun
(12.1333°N, 108.3167°E)
Time: 21:21:25
(UTC+00:00)
Language:

FLOCK 1C 2 - Orbit

View from above orbital plane
View from above orbital plane
View from above satellite
View from above satellite

Ground track
Ground track

The orbit data is extracted from the following two-line orbital elements,

1 40029U 14033V   22022.57937135  .00002303  00000-0  23647-3 0  9997
2 40029  97.9871 327.1908 0013602 163.3870 196.7796 14.91351984412218
Epoch (UTC): 22 January 2022 13:54:17
Eccentricity: 0.0013602
inclination: 97.9871°
perigee height: 584 km
apogee height: 603 km
right ascension of ascending node: 327.1908°
argument of perigee: 163.3870°
revolutions per day: 14.91351984
mean anomaly at epoch: 196.7796°
orbit number at epoch: 41221

The dashed part of the orbit path shows where the satellite is in the earth's shadow,  

DLR